Home > Time Zones > World Clock > Weather > Japan > Tokyo > Past weeks

Flag for Japan Weather past 2 weeks in Tokyo, Japan

Now
37 °F

Chilly.


Feels Like: 37 °F
Forecast: 38 / 44 °F
Wind: 1 mph from North

Location: Tokyo

Current Time: Dec 29, 2014 at 8:10:23 AM

Latest Report: Dec 29, 2014 at 7:00 AM


Visibility: N/A

Pressure: 29.86 "Hg

Humidity: 91%

Dew point: 35 °F

Location of TokyoLocation

Historic Weather in Tokyo — Graph

°F

Tokyo temperature yesterday

Maximum temperature yesterday: 45 °F (at 2:00 PM)
Minimum temperature yesterday: 31 °F (at 6:00 AM)
Average temperature yesterday: 39 °F

Past Weeks' High & Low Weather Summary

 TemperatureHumidityPressure
High54 °F (Dec 21, 3:00 PM)97% (Dec 17, 1:00 AM)30.45 "Hg (Dec 17, 1:00 AM)
Low31 °F (Dec 28, 6:00 AM)19% (Dec 18, 1:00 PM)29.29 "Hg (Dec 16, 8:00 PM)
Average42 °F52%30.01 "Hg
* Reported Dec 14 6:00 AM — Dec 29 6:00 AM, Tokyo, Weather by CustomWeather, © 2014

Note: Actual official high and low records may vary slightly from our data, if they occured in-between our weather recording intervals... More about our weather records

Advertising

Tokyo weather history for previous 24 hours

 ConditionsComfort  
Time TempWeatherWind HumidityBarometerVisibility
6:00 AM
Dec 29
37 °FLight rain. Overcast.3 mph89%29.88 "Hg9 mi
5:00 AM37 °FChilly.3 mph83%29.90 "HgN/A
4:00 AM37 °FChilly.3 mph80%29.89 "HgN/A
3:00 AM38 °FLight rain. Overcast.2 mph86%29.96 "Hg6 mi
2:00 AM40 °FQuite cool.2 mph61%29.99 "HgN/A
1:00 AM40 °FChilly.5 mph65%30.02 "HgN/A
12:00 AM40 °FQuite cool.5 mph55%30.06 "HgN/A
11:00 PM
Dec 28
42 °FQuite cool.7 mph52%30.08 "HgN/A
10:00 PM42 °FQuite cool.6 mph56%30.09 "HgN/A
9:00 PM40 °FOvercast.3 mph60%30.09 "Hg12 mi
8:00 PM43 °FQuite cool.2 mph52%30.10 "HgN/A
7:00 PM42 °FQuite cool.2 mph51%30.11 "HgN/A
6:00 PM43 °FOvercast.5 mph50%30.11 "Hg12 mi
5:00 PM42 °FQuite cool.5 mph49%30.11 "HgN/A
4:00 PM44 °FQuite cool.2 mph47%30.12 "HgN/A
3:00 PM45 °FOvercast.3 mph43%30.12 "Hg12 mi
2:00 PM45 °FCool.3 mph38%30.13 "HgN/A
1:00 PM45 °FQuite cool.1 mph39%30.14 "HgN/A
12:00 PM44 °FPassing clouds.3 mph40%30.19 "Hg19 mi
11:00 AM41 °FQuite cool.3 mph42%30.24 "HgN/A
10:00 AM38 °FChilly.3 mph45%30.29 "HgN/A
9:00 AM34 °FPartly sunny.3 mph55%30.30 "Hg19 mi
8:00 AM33 °FChilly.3 mph59%30.30 "HgN/A
Weather by CustomWeather, © 2014

See weather overviewHow to use our weather pages